HULIANWANG DIGUI-118

Last updated on Sun Dec 14 2025 00:02:09 GMT+0000 (Coordinated Universal Time)

1 66957U 25287E 25346.69967332 -.00000151 00000+0 -19373-3 0 9996 2 66957 86.4945 346.1700 0007219 190.5502 169.5507 13.69137019 523
UTC large
Height (km)
Speed (km/s)
/
Latitude / Longitude
Inclination (degrees)
Orbital Period (minutes)
Azimuth
Elevation
Range (km)
Doppler Factor

Next 0 passes for location: London (51.5072 / 0.1276)

Sorry there are no passes over London.